Location: Piotrkow Trybunalski
(51.4000°N, 19.6830°E)
Time: 08:12:11
(UTC+01:00)

BlueWalker 3 - Pass Details

Date: 05 December 2022
Orbit: 499 x 517 km, 53.2° (Epoch: 29 January)

Event Time Altitude Azimuth Distance (km) Brightness Sun altitude
Rises 17:40:06 0° 285° (WNW) 2,632 6.7 -18.6°
Reaches altitude 10° 17:42:19 10° 286° (WNW) 1,740 5.6 -18.9°
Maximum altitude 17:46:16 84° 15° (NNE) 519 1.8 -19.5°
Enters shadow 17:46:58 59° 96° (E) 596 1.9 -19.6°
